Location: St Paul
(33.4390°N, 83.7350°W)
Time: 11:59:51
(UTC-05:00)

Cosmos 1328 - Pass Details

Date: 06 October 2017
Orbit: 537 x 550 km, 82.5° (Epoch: 15 December)

Event Time Altitude Azimuth Distance (km) Brightness Sun altitude
Rises 20:59:08 0° 351° (N) 2,718 7.6 -23.1°
Reaches altitude 10° 21:01:19 10° 349° (N) 1,819 6.7 -23.5°
Enters shadow 21:05:09 72° 288° (WNW) 576 3.9 -24.3°
